Weather History for PHNL - November, 2012

Change the Weather History Date:

Friday, November 9, 2012

  Actual Average Record
Temperature  
Mean Temperature 79 °F 78 °F  
Max Temperature 85 °F 85 °F 91 °F (1986)
Min Temperature 73 °F 72 °F 64 °F (1979)
Degree Days  
Heating Degree Days 0 0  
Month to date heating degree days 0 0  
Since 1 July heating degree days 0 0  
Cooling Degree Days 14 13  
Month to date cooling degree days 115 123  
Year to date cooling degree days 3980 4069  
Growing Degree Days 28 (Base 50)    
Moisture  
Dew Point 63 °F    
Average Humidity 59    
Maximum Humidity 69    
Minimum Humidity 48    
Precipitation  
Precipitation T in 0.09 in 1.26 in (1879)
Month to date precipitation T 0.77  
Year to date precipitation 8.37 12.21  
Snow  
Snow 0.00 in - - ()
Month to date snowfall 0.0  
Since 1 July snowfall 0.0  
Since 1 September snowfall 0.0  
Snow Depth 0.00 in    
Sea Level Pressure  
Sea Level Pressure 30.06 in    
Wind  
Wind Speed 11 mph (NE)    
Max Wind Speed 26 mph    
Max Gust Speed 31 mph    
Visibility 10 miles    
Events Rain    
T = Trace of Precipitation, MM = Missing Value Source: NWS Daily Summary

Daily Weather History Graph

Daily Weather History Graph

Search for Another Location

Airport or City:

Trip Planner

Search our weather history database for the weather conditions in past years. The results will help you decide how hot, cold, wet, or windy it might be!

Date:

Astronomy

Nov. 09, 2012 Rise Set
Actual Time 6:39 AM HST 5:51 PM HST
Civil Twilight 6:16 AM HST 6:14 PM HST
Nautical Twilight 5:49 AM HST 6:41 PM HST
Astronomical Twilight 5:23 AM HST 7:07 PM HST
Moon 2:22 AM HST (11/9) 2:43 PM HST (11/9)
Length of Visible Light 11h 58m
Length of Day
11h 12m
Waning Crescent, 21% of the Moon is Illuminated
Nov 9
Waning Crescent
Nov 13
New
Nov 20
First Quarter
Nov 28
Full
Dec 6
Last Quarter

Hourly Weather History & Observations

Time (HST) Temp. Heat Index Dew Point Humidity Pressure Visibility Wind Dir Wind Speed Gust Speed Precip Events Conditions
12:53 AM 75.9 °F - 64.0 °F 67% 30.08 in 10.0 mi Variable 3.5 mph - N/A   Scattered Clouds
1:53 AM 75.9 °F - 64.0 °F 67% 30.06 in 10.0 mi Variable 3.5 mph - N/A   Scattered Clouds
2:53 AM 75.9 °F - 64.9 °F 69% 30.05 in 10.0 mi NE 3.5 mph - N/A   Scattered Clouds
3:53 AM 75.0 °F - 64.0 °F 69% 30.03 in 10.0 mi NNE 6.9 mph - N/A   Partly Cloudy
4:53 AM 75.9 °F - 64.0 °F 67% 30.03 in 10.0 mi Calm Calm - N/A   Partly Cloudy
5:53 AM 75.0 °F - 64.0 °F 69% 30.05 in 10.0 mi NE 4.6 mph - N/A   Partly Cloudy
6:53 AM 75.9 °F - 64.0 °F 67% 30.07 in 10.0 mi NE 9.2 mph - N/A   Scattered Clouds
7:53 AM 78.1 °F - 64.0 °F 62% 30.09 in 10.0 mi ENE 9.2 mph - N/A   Scattered Clouds
8:53 AM 79.0 °F - 64.9 °F 62% 30.10 in 10.0 mi NE 11.5 mph 20.7 mph N/A   Scattered Clouds
9:53 AM 81.0 °F 82.2 °F 63.0 °F 54% 30.10 in 10.0 mi ENE 13.8 mph 24.2 mph N/A   Scattered Clouds
10:53 AM 82.0 °F 83.1 °F 63.0 °F 52% 30.09 in 10.0 mi ENE 13.8 mph 27.6 mph N/A   Scattered Clouds
11:53 AM 84.0 °F 84.9 °F 63.0 °F 49% 30.06 in 10.0 mi ENE 21.9 mph 31.1 mph N/A   Scattered Clouds
12:53 PM 84.0 °F 84.9 °F 63.0 °F 49% 30.04 in 10.0 mi NE 19.6 mph 27.6 mph N/A   Scattered Clouds
1:53 PM 82.9 °F 83.7 °F 62.1 °F 49% 30.02 in 10.0 mi ENE 19.6 mph 27.6 mph N/A   Scattered Clouds
2:53 PM 84.0 °F 84.5 °F 62.1 °F 47% 30.00 in 10.0 mi ENE 16.1 mph 23.0 mph N/A   Scattered Clouds
3:53 PM 80.1 °F 81.7 °F 64.0 °F 58% 30.01 in 10.0 mi ENE 20.7 mph 26.5 mph 0.00 in   Mostly Cloudy
4:53 PM 80.1 °F 81.5 °F 63.0 °F 56% 30.02 in 10.0 mi ENE 19.6 mph - N/A   Mostly Cloudy
5:53 PM 78.1 °F - 63.0 °F 60% 30.04 in 10.0 mi NE 11.5 mph - N/A   Scattered Clouds
6:53 PM 77.0 °F - 62.1 °F 60% 30.05 in 10.0 mi ENE 13.8 mph - N/A   Scattered Clouds
7:53 PM 77.0 °F - 63.0 °F 62% 30.07 in 10.0 mi NE 9.2 mph - N/A   Scattered Clouds
8:53 PM 75.9 °F - 62.1 °F 62% 30.09 in 10.0 mi NE 10.4 mph - N/A   Scattered Clouds
9:53 PM 75.9 °F - 63.0 °F 64% 30.08 in 10.0 mi ENE 15.0 mph - 0.00 in   Scattered Clouds
10:53 PM 75.9 °F - 63.0 °F 64% 30.08 in 10.0 mi NE 4.6 mph - N/A   Scattered Clouds
11:53 PM 75.0 °F - 64.0 °F 69% 30.07 in 10.0 mi NNE 8.1 mph - 0.00 in Rain Light Rain